www.pogodaiklimat.ru

Погода и климат >> Архив погоды >> Россия >> Саратовская область >> Пугачев


ПОГОДА в Пугачеве

  • Прогноз погоды в Пугачеве
  • Монитор погоды в Пугачеве

АРХИВ ПОГОДЫ в Пугачеве

Время (UTC), дата Ветер
(напр.,м/с)
 
Видим.   Явления Облачность Т
(С)
Тd
(С)
f
(%)
Тe
(С)
Тes
(С)
Комфортность P
(гПа)
Po
(гПа)
Тmin
(С)
Tmax
(С)
R
(мм)
R24
(мм)
S
(см)
12 12.06 СЗ 4 10 км 3/3 1000 м
[Cu hum]
+32.6 +12.5 29 +33 +38 жарко 1013.1 1009.0
15 12.06 СЗ 3
{13}
10 км 4/4 600 м
[Cu med, cong]
+30.9 +13.8 35 +32 +33 жарко 1012.0 1007.9 +32.8
18 12.06 СВ 2 10 км 4/3 600 м
[Sc diur, vesp Ci fib]
+23.8 +13.3 52 +26 +26 жарко 1012.0 1007.8
21 12.06 СВ 2 10 км 5/5 600 м
[Sc]
+21.7 +12.4 55 +24 +24 комфорт 1012.6 1008.4
00 13.06 В 3 10 км 6/4 600 м
[Sc Ci fib]
+19.2 +11.2 60 +20 +20 1013.7 1009.4
03 13.06 СВ 4 10 км 8/8 660 м
[Cb calv]
+17.2 +11.7 70 +17 +17 1015.6 1011.3 +17.2
06 13.06 СВ 8-13
{13}
10 км {ливн. осадки} 10/10 600 м
[Sc]
+14.6 +9.0 69 +12 +12 1018.4 1014.0 +14.6
09 13.06 СВ 7-12
{13}
10 км ясно +18.6 +4.8 40 +18 +23 1018.9 1014.6
12 13.06 СВ 6-12
{14}
10 км ясно +18.9 +2.5 34 +19 +23 1019.4 1015.1
15 13.06 СВ 7-11
{13}
10 км ясно +17.9 +2.3 35 +17 +18 1019.6 1015.3 +19.1 0.0
18 13.06 С 3
{12}
10 км ясно +13.1 +2.2 48 +12 +12 1021.2 1016.8
21 13.06 С 2 10 км ясно +9.1 +2.4 63 +8 +8 1021.9 1017.4
00 14.06 С 2 10 км ясно +8.2 +2.5 67 +7 +7 1022.4 1017.9
03 14.06 СВ 2 10 км 3/0
[Ci fib]
+13.3 +4.1 54 +13 +15 1022.7 1018.3 +8.0
06 14.06 С 4 10 км 5/0
[Ci fib]
+18.0 +1.1 32 +18 +25 1022.5 1018.1
09 14.06 С 4 10 км 8/0
[Cs]
+21.1 +1.7 28 +21 +31 комфорт 1020.5 1016.2
12 14.06 СЗ 3 10 км 8/0
[Ci sp]
+22.4 +1.8 26 +22 +29 комфорт 1018.1 1013.8
15 14.06 З 3 10 км 9/4 600 м
[Sc Ac lent Ci fib]
+21.9 +1.9 27 +22 +22 комфорт 1015.6 1011.3 +22.8
18 14.06 С 4
{15}
10 км 10/10 600 м
[Sc]
+19.4 +2.8 33 +20 +20 1014.7 1010.4
21 14.06 В 4 4000 м слаб. дождь 10/10 630 м
[Sc]
+13.5 +8.7 73 +12 +12 1014.7 1010.3
00 15.06 штиль 0 10 км {дождь} 10/10 630 м
[Sc]
+12.4 +9.4 82 +12 +12 1013.1 1008.7
03 15.06 В 2 10 км 10/8 660 м
[Sc Ac trans]
+13.0 +10.1 83 +12 +12 1013.1 1008.7 +12.2 0.0
06 15.06 В 3 10 км 10/10 700 м
[Cu Sc]
+14.9 +8.5 66 +14 +14 1014.1 1009.8
09 15.06 В 2 10 км 8/8 800 м
[Cu Sc]
+18.6 +8.0 50 +20 +23 1013.4 1009.1
12 15.06 СВ 2 10 км 9/9 660 м
[Cb calv]
+19.9 +7.8 46 +21 +22 комфорт 1012.8 1008.5
15 15.06 СВ 2 10 км 8/6 750 м
[Cb calv Ac trans]
+19.6 +6.6 43 +21 +21 комфорт 1012.2 1007.9 +20.9
18 15.06 С 2 10 км 4/4 600 м
[Sc]
+15.0 +6.7 58 +15 +15 1012.4 1008.1
21 15.06 СВ 1 10 км 4/4 600 м
[Sc]
+12.2 +5.5 64 +12 +12 1012.3 1007.9
00 16.06 С 2 10 км 3/3 600 м
[Sc]
+9.4 +5.0 74 +8 +8 1012.1 1007.6
03 16.06 штиль 0 10 км 4/3 600 м
[Sc Ac lent]
+16.1 +7.0 55 +16 +18 1011.8 1007.5 +7.5
06 16.06 С 2 10 км 4/3 600 м
[Cu hum Ci fib]
+21.0 +5.5 36 +22 +31 комфорт 1011.7 1007.5
09 16.06 С 1 10 км 8/8 1200 м
[Cu hum]
+22.9 +5.9 33 +23 +27 комфорт 1010.6 1006.4
12 16.06 СЗ 3 10 км 9/8 700 м
[Cb cap Ac trans]
+24.4 +7.7 34 +25 +26 комфорт 1009.5 1005.3
15 16.06 С 3 10 км 8/6 630 м
[Cb cap Ac trans]
+22.9 +9.8 43 +25 +25 комфорт 1009.3 1005.0 +25.2
18 16.06 СВ 2 10 км 8/8 660 м
[Sc diur, vesp]
+19.0 +7.9 48 +20 +20 1010.4 1006.1
21 16.06 СВ 2 10 км 3/0
[Ac trans]
+14.0 +6.7 61 +14 +14 1011.0 1006.6
00 17.06 СВ 2 10 км ясно +11.5 +6.5 71 +10 +10 1012.1 1007.7
03 17.06 С 1 10 км ясно +16.3 +8.3 59 +17 +20 1013.1 1008.7 +10.5
06 17.06 Ю 1 10 км 1/0
[Ci sp]
+22.1 +8.3 41 +23 +37 комфорт 1013.2 1008.9
09 17.06 В 2 10 км 3/3 1000 м
[Cu hum]
+24.6 +7.1 33 +25 +37 комфорт 1012.9 1008.7
12 17.06 СЗ 3 10 км 1/1 1000 м
[Cu hum]
+26.5 +7.3 30 +26 +34 жарко 1012.2 1008.0
15 17.06 С 2 10 км 1/1 1000 м
[Cu hum]
+25.9 +7.7 31 +26 +27 жарко 1011.4 1007.2 +26.7
18 17.06 З 1 10 км 3/0
[Ci sp]
+19.3 +8.5 50 +21 +21 комфорт 1011.8 1007.5
21 17.06 З 1 10 км 6/0
[Ac trans Ci sp]
+15.4 +10.2 71 +16 +16 1011.8 1007.6
00 18.06 Ю 1 10 км 10/4 600 м
[Sc Ac lent Ci sp]
+12.1 +10.1 88 +12 +12 1011.8 1007.4
03 18.06 штиль 0 10 км 9/3 600 м
[Sc Ac trans]
+18.1 +13.0 72 +18 +20 1012.0 1007.7 +11.7
06 18.06 СЗ 1 10 км 5/3 600 м
[Cu Sc Ci sp]
+25.8 +8.5 33 +26 +35 жарко 1011.7 1007.5
09 18.06 СЗ 4 10 км 9/8 800 м
[Cb cap Ci fib]
+26.5 +8.4 32 +27 +29 жарко 1011.3 1007.1
12 18.06 С 4 10 км 8/5 600 м
[Cu hum Ci sp]
+28.1 +6.9 26 +27 +30 жарко 1010.2 1006.0
15 18.06 С 3 10 км 8/5 600 м
[Cb cap Ci fib]
+25.9 +9.1 35 +26 +27 жарко 1009.8 1005.6 +28.4
18 18.06 СЗ 2 10 км 6/6 600 м
[Cb calv]
+21.0 +10.9 52 +24 +24 комфорт 1010.4 1006.1
21 18.06 СЗ 1 10 км 8/8 660 м
[Cb calv]
+19.0 +12.3 65 +21 +21 комфорт 1010.3 1006.0
00 19.06 штиль 0 10 км 8/8 630 м
[Cb calv]
+16.5 +13.2 81 +16 +16 1010.3 1006.0
03 19.06 СЗ 1 10 км 8/8 600 м
[Cb calv]
+20.0 +13.9 68 +23 +24 комфорт 1010.3 1006.1 +16.1
06 19.06 В 2 10 км {ливн. осадки} 6/6 700 м
[Cb calv]
+22.0 +14.9 64 +25 +30 комфорт 1010.6 1006.4
09 19.06 СЗ 2 10 км 3/3 600 м
[Cu med, cong]
+26.9 +12.7 41 +28 +40 жарко 1010.0 1005.8

 

Местоположение метеостанции Пугачев (Саратовская область, Россия): широта 52.03 долгота 48.83 высота над уровнем моря 38 м.

В архиве по умолчанию представлена погода в Пугачеве за последнюю неделю. Архивные данные за месяц целиком и за предыдущие месяцы, начиная с января 2011 года, Вы можете получить, выбрав интересующий диапазон дат из раскрывающегося списка и нажав кнопку "Ввод!".


*Определитесь, кто Вы:
робот инопланетянин человек

Внимание! Время в таблицах - всемирное. Для получения местного времени необходимо прибавить поправку, которая равна 4 ч.

Смотрите также архив погоды в соседних городах и на ближайших метеорологических станциях:

Погода в Балаково (Саратовская область, Россия) (69 км)
Погода в Хвалынске (Саратовская область, Россия) (73 км)
Погода в Ершове (Саратовская область, Россия) (82 км)
Погода в Приволжье (Самарская область, Россия) (95 км)
Погода в Перелюбе (Саратовская область, Россия) (104 км)
Погода в Озинках (Саратовская область, Россия) (111 км)
Погода в Безенчуке (Самарская область, Россия) (113 км)
Погода в Большая Глушица (Самарская область, Россия) (118 км)
Погода в Чапаевске (Самарская область, Россия) (124 км)
Погода в Сызрани (Самарская область, Россия) (131 км)

Пояснения к столбцам:

Ветер - указаны скорость ветра в м/с - средняя за 10 мин, порывы в срок и между сроками (в фигурных скобках) и направление, откуда дует ветер: С - северный, СВ - северо-восточный, В - восточный, ЮВ - юго-восточный, Ю - южный, ЮЗ - юго-западный, З - западный, СЗ - северо-западный.
Видимость - горизонтальная дальность видимости в метрах или километрах. При видимости от 1 до 10 км при отсутствии осадков обычно наблюдается дымка, при ухудшении видимости до 1 км и менее - туман. В сухую погоду видимость может ухудшаться дымом, пылью или мглою.
Явления - указаны атмосферные явления, наблюдавшиеся в срок или в последний час перед сроком; фигурными скобками обозначены явления, наблюдавшиеся между сроками (за 1-3 часа до срока); квадратными скобками обозначены град или гололедные отложения с указанием их диаметра в мм.
Облачность - указаны через наклонную черту общая и нижняя облачность в баллах и высота нижней границы облаков в метрах; квадратными скобками обозначены формы облаков: Ci - перистые, Cs - перисто-слоистые, Cc - перисто-кучевые, Ac - высококучевые, As - высокослоистые, Sc - слоисто-кучевые, Ns - слоисто-дождевые, Cu - кучевые, Cb - кучево-дождевые. Подробнее классификацию облаков см. в Атласе облаков (PDF).
T - Температура воздуха - температура, измеренная на высоте 2 м над землей.
Td - Температура точки росы - температура, при понижении до которой содержащийся в воздухе водяной пар достигнет насыщения.
f - Относительная влажность воздуха - влажноcть воздуха, измеренная на высоте 2 м над землей.
Te - Эффективная температура - температура, которую ощущает одетый по сезону человек в тени. Характеристика душности погоды. При расчете учитывается влияние влажности воздуха и скорости ветра на теплоощущения человека.
Tes - Эффективная температура на солнце - температура, которую ощущает человек, с поправкой на солнечный нагрев. Характеристика знойности погоды. Зависит от высоты солнца над горизонтом, облачности и скорости ветра. Ночью, в пасмурную погоду, а также при ветре 12 м/с и более поправка равна нулю.
P - Атмосферное давление - приведенное к уровню моря атмосферное давление.
Po - Атмосферное давление - измеренное на уровне метеостанции атмосферное давление.
Tmin - Минимальная температура - минимум температуры воздуха на высоте 2 м над землей.
Tmax - Максимальная температура - максимум температуры воздуха на высоте 2 м над землей.
R - Количество осадков - Количество выпавших осадков за период времени, мм. При наведении курсора мыши на число - период времени, за который выпало указанное количество осадков.
R24 - Количество осадков - Количество выпавших осадков за 24 часа, мм.
S - Снежный покров - Высота снежного покрова, см. При наведении курсора мыши на число - состояние снежного покрова и степень покрытия местности в баллах.